Cloud_Cover
16 75 95 100 97 74 47 34 70 81 46 51 60 5 5 5 5 0 0 0 0 0 0 0 0 0 0 0 0 0 28 0
100 100 100 100 100 100 99 49 5 5 54 72 18 7 5 5 5 5 5 0 0 0 0 0 0 0 0 0 0 0 24 1
99 25 100 100 91 100 100 94 26 9 22 32 5 29 5 14 52 72 6 5 5 4 0 0 0 1 0 0 5 32 7 6
38 5 10 7 28 71 97 79 82 77 100 100 64 31 8 15 70 5 2 5 5 5 5 4 32 0 0 0 6 10 0 2
90 40 11 5 10 29 16 51 80 42 28 95 84 98 86 79 53 20 3 5 5 5 5 5 5 0 0 0 4 0 0 0
0 3 5 5 36 9 5 5 2 6 73 74 100 72 95 94 100 84 87 91 23 12 23 31 5 3 4 0 0 0 24 41
0 0 0 0 2 5 4 13 25 5 2 3 3 16 99 100 90 91 100 96 73 57 24 82 96 52 5 5 5 15 19 15
0 0 0 2 0 2 3 2 0 2 0 3 5 3 2 3 47 59 83 94 100 100 100 84 40 95 99 56 58 29 44 24
5 0 0 0 0 0 0 1 0 0 0 0 0 0 0 0 0 2 73 100 100 100 100 100 100 100 99 100 100 100 100 59
0 0 0 0 0 1 1 0 0 0 0 0 0 0 0 0 0 0 67 9 40 100 93 100 100 100 100 100 100 100 100 100
19 22 20 24 19 6 0 0 0 0 0 0 0 0 0 0 0 0 0 0 0 46 53 18 98 100 100 100 100 100 100 100
0 0 0 0 0 0 0 0 0 0 0 0 0 0 0 0 0 0 0 0 0 0 0 5 83 56 99 100 100 100 100 100
0 0 0 0 0 0 0 0 0 0 0 0 0 0 0 0 0 0 0 0 0 2 2 0 0 5 6 66 100 100 100 92
0 0 0 0 0 0 0 0 0 0 0 0 0 0 0 0 0 0 0 0 0 0 0 4 1 0 15 18 50 100 100 100
0 0 0 0 0 0 0 0 0 0 0 0 0 0 0 0 0 0 0 0 0 0 0 0 2 5 6 25 79 98 100 100
0 0 0 0 0 0 0 0 0 0 0 0 0 0 0 0 0 0 0 0 0 0 0 0 0 1 66 15 95 100 100 100
0 0 0 0 0 0 0 0 0 0 0 0 0 0 0 0 0 0 0 0 0 0 0 0 0 0 0 33 89 22 97 91
0 0 0 0 0 0 0 0 0 0 0 0 0 0 0 0 0 0 0 0 0 0 0 0 0 0 0 0 0 42 70 16
0 0 0 0 5 5 1 0 0 0 0 0 0 1 2 0 0 0 0 0 0 0 0 0 0 0 0 0 0 0 0 5
4 5 5 5 10 8 5 4 0 0 0 0 5 5 5 5 5 4 0 0 0 0 0 0 0 0 0 0 0 0 0 0